CW0570 Weather Reports


time (UTC)temp
C
wind
direction
speed
KPH
gust
KPH
rain 1hr
cm
rain 24hr
cm
rain mn
cm
humidity
%
barometer
mb
20260505174558 13 267 0.0 3.2 0.00 0.00 0.00 83 1017.2
20260505173055 13 267 0.0 3.2 0.00 0.00 0.00 84 1017.1
20260505171553 12 271 0.0 3.2 0.00 0.00 0.00 86 1017.1
20260505170051 12 258 1.6 4.8 0.00 0.00 0.00 86 1017.1
20260505164551 12 36 0.0 1.6 0.00 0.00 0.00 87 1017.1
20260505163046 12 36 0.0 3.2 0.00 0.00 0.00 88 1017.1
20260505161544 12 36 0.0 3.2 0.00 0.00 0.00 91 1017.2
20260505153045 11 125 0.0 0.0 0.00 0.03 0.00 95 1017.1
20260505151637 11 125 0.0 0.0 0.00 0.03 0.00 96 1017.0
20260505124530 10 125 0.0 0.0 0.00 0.03 0.00 96 1016.3
20260505123030 10 125 0.0 0.0 0.00 0.03 0.00 96 1016.2
20260505121529 10 125 0.0 0.0 0.00 0.03 0.00 97 1016.1
20260505120027 10 125 0.0 0.0 0.00 0.03 0.00 96 1016.0
20260505114526 10 125 0.0 0.0 0.00 0.05 0.00 96 1016.0
20260505113030 10 125 0.0 0.0 0.00 0.05 0.00 96 1016.1
20260505111525 10 125 0.0 0.0 0.00 0.05 0.00 96 1016.1
20260505101526 10 125 0.0 0.0 0.00 0.08 0.00 96 1016.1
20260505100019 10 125 0.0 0.0 0.00 0.08 0.00 96 1016.1
20260505094525 10 125 0.0 0.0 0.00 0.08 0.00 96 1016.2
20260505093017 10 125 0.0 0.0 0.00 0.08 0.00 96 1016.2
20260505091514 10 125 0.0 0.0 0.00 0.08 0.00 96 1016.4
20260505090013 10 125 0.0 0.0 0.00 0.08 0.00 96 1016.5
20260505084517 10 125 0.0 0.0 0.00 0.08 0.00 96 1016.5
20260505083011 10 125 0.0 0.0 0.00 0.08 0.00 95 1016.6
20260505081510 10 125 0.0 0.0 0.00 0.08 0.00 95 1016.7
20260505080008 11 125 0.0 0.0 0.00 0.08 0.00 95 1016.7
20260505074507 11 125 0.0 0.0 0.00 0.08 0.00 95 1016.8
20260505073005 11 125 0.0 0.0 0.00 0.08 0.00 95 1016.8
20260505071505 11 125 0.0 0.0 0.00 0.08 0.00 95 1016.8
20260505070003 11 125 0.0 0.0 0.00 0.08 0.00 95 1016.8
20260505064502 11 125 0.0 0.0 0.00 0.08 0.08 95 1016.7
20260505063002 11 125 0.0 0.0 0.00 0.08 0.08 95 1016.8
20260505061502 11 125 0.0 0.0 0.00 0.08 0.08 94 1016.9
20260505060100 11 125 0.0 0.0 0.00 0.08 0.08 94 1016.9
20260505054611 11 125 0.0 0.0 0.00 0.08 0.08 94 1017.0
20260505053102 11 125 0.0 3.2 0.00 0.08 0.08 94 1017.1
20260505051559 11 125 0.0 0.0 0.00 0.08 0.08 93 1017.0
20260505041600 11 125 0.0 0.0 0.00 0.08 0.08 92 1016.6
20260505040057 11 125 0.0 3.2 0.00 0.08 0.08 90 1016.5
20260505034555 11 127 0.0 3.2 0.00 0.08 0.08 90 1016.2
20260505033055 11 127 0.0 3.2 0.00 0.08 0.08 90 1016.2
20260505031604 12 126 0.0 3.2 0.00 0.08 0.08 88 1016.0
20260505030055 12 126 0.0 4.8 0.00 0.08 0.08 88 1015.9
20260505024602 12 97 0.0 3.2 0.00 0.13 0.08 89 1015.8
20260505023054 12 180 0.0 3.2 0.00 0.13 0.08 88 1015.8
20260505021555 12 145 0.0 3.2 0.00 0.13 0.08 90 1015.8
20260505020052 12 145 0.0 3.2 0.00 0.13 0.08 89 1015.8
20260505014606 12 239 0.0 3.2 0.00 0.13 0.08 89 1015.8
20260505013052 12 253 0.0 3.2 0.00 0.13 0.08 88 1016.0
20260505011601 13 113 0.0 4.8 0.00 0.13 0.08 87 1016.0
20260505010050 13 202 0.0 4.8 0.00 0.13 0.08 87 1016.0
20260505004549 13 150 1.6 4.8 0.00 0.13 0.08 86 1016.1
20260505003051 13 347 1.6 6.4 0.00 0.13 0.08 87 1016.2
20260505001549 13 5 1.6 6.4 0.00 0.13 0.08 86 1016.0
20260504234550 13 110 0.0 3.2 0.00 0.13 0.08 87 1015.8
20260504233104 13 110 0.0 3.2 0.00 0.13 0.08 88 1015.8
20260504231548 13 281 0.0 3.2 0.00 0.13 0.08 88 1016.0
20260504230046 13 256 1.6 8.0 0.00 0.13 0.08 87 1015.8
20260504224552 13 286 0.0 3.2 0.00 0.13 0.08 88 1016.0
20260504223100 13 227 0.0 6.4 0.00 0.13 0.08 87 1016.2
20260504221544 13 175 0.0 6.4 0.00 0.13 0.08 87 1016.4
20260504220044 13 223 1.6 8.0 0.00 0.13 0.08 87 1016.5
20260504214543 13 234 0.0 3.2 0.00 0.13 0.08 87 1016.6
20260504213054 14 200 0.0 3.2 0.00 0.13 0.08 88 1016.5
20260504211542 13 281 0.0 4.8 0.00 0.13 0.08 87 1016.4
20260504210042 13 294 0.0 11.3 0.00 0.13 0.08 87 1016.5
20260504204546 14 219 0.0 6.4 0.00 0.13 0.08 87 1016.6
20260504203053 14 238 1.6 9.7 0.00 0.13 0.08 87 1016.6
20260504201539 14 248 0.0 4.8 0.00 0.13 0.08 86 1016.6
20260504200037 13 252 0.0 3.2 0.00 0.13 0.08 87 1016.6
20260504194535 13 242 0.0 3.2 0.00 0.13 0.08 89 1016.7
20260504193035 13 166 0.0 6.4 0.00 0.13 0.08 90 1016.9
20260504191534 13 160 0.0 4.8 0.00 0.13 0.08 90 1016.9
20260504190036 13 128 0.0 3.2 0.00 0.13 0.08 90 1017.0
20260504184533 13 257 0.0 6.4 0.00 0.13 0.08 89 1017.1
20260504183031 13 284 1.6 6.4 0.00 0.13 0.08 89 1016.9
20260504181536 13 167 0.0 4.8 0.00 0.13 0.08 89 1016.8